Wallops Island, VA

5:35 AM EST on December 16, 2019 (GMT -0500)
Wallops Flight Facility

Weather History for KWAL - November, 2019

Change the Weather History Date:

Saturday, November 16, 2019

  Actual Average Record
Temperature  
Mean Temperature 44 °F 50 °F  
Max Temperature 49 °F 59 °F 74 °F (2001)
Min Temperature 39 °F 41 °F 21 °F (1967)
Degree Days  
Heating Degree Days 21    
Month to date heating degree days 322  
Since 1 July heating degree days 450  
Cooling Degree Days 0    
Month to date cooling degree days 0  
Year to date cooling degree days 1807  
Moisture  
Dew Point 35 °F    
Average Humidity 70    
Maximum Humidity 86    
Minimum Humidity 53    
Precipitation  
Precipitation T in 0.09 in 0.61 in (2002)
Month to date precipitation 1.20 1.51  
Year to date precipitation 42.90 36.05  
Sea Level Pressure  
Sea Level Pressure 30.22 in    
Wind  
Wind Speed 17 mph ()    
Max Wind Speed 35 mph    
Max Gust Speed 43 mph    
Visibility 10.0 miles    
Events      
T = Trace of Precipitation, MM = Missing Value Source: Averaged Metar Reports

Daily Weather History Graph

Daily Weather History Graph

Search for Another Location

Airport or City:

Astronomy

Nov. 16, 2019 Rise Set
Actual Time 6:43 AM EST 4:49 PM EST
Civil Twilight 6:15 AM EST 5:17 PM EST
Nautical Twilight 5:43 AM EST 5:49 PM EST
Astronomical Twilight 5:12 AM EST 6:20 PM EST
Moon 8:21 PM EST 10:33 AM EST
Length of Visible Light 11h 02m
Length of Day
10h 06m
Waning Gibbous, 82% of the Moon is Illuminated
Nov 16
Waning Gibbous
Nov 19
Last Quarter
Nov 26
New
Dec 4
First Quarter
Dec 12
Full

Hourly Weather History & Observations

Time (EST) Temp. Windchill Dew Point Humidity Pressure Visibility Wind Dir Wind Speed Gust Speed Precip Events Conditions
12:54 AM 45.0 °F 39.7 °F 30.9 °F 58% 30.15 in 10.0 mi North 10.4 mph - N/A   Mostly Cloudy
1:54 AM 46.0 °F 39.9 °F 30.9 °F 56% 30.15 in 10.0 mi North 13.8 mph - N/A   Overcast
3:54 AM 42.1 °F 34.2 °F 30.9 °F 65% 30.15 in 10.0 mi NNE 16.1 mph 31.1 mph N/A   Overcast
4:54 AM 41.0 °F 31.9 °F 30.0 °F 65% 30.18 in 10.0 mi NNE 19.6 mph 29.9 mph N/A   Overcast
5:54 AM 41.0 °F 31.6 °F 30.0 °F 65% 30.19 in 10.0 mi NNE 20.7 mph 29.9 mph N/A   Overcast
6:54 AM 39.9 °F 31.8 °F 30.0 °F 68% 30.22 in 10.0 mi North 15.0 mph 23.0 mph N/A   Overcast
7:19 AM 39.9 °F 31.1 °F 30.0 °F 68% 30.23 in 10.0 mi NNE 17.3 mph 24.2 mph N/A   Overcast
7:54 AM 39.9 °F 31.4 °F 30.9 °F 70% 30.23 in 10.0 mi North 16.1 mph 26.5 mph N/A   Overcast
8:54 AM 43.0 °F 35.7 °F 34.0 °F 71% 30.25 in 10.0 mi North 15.0 mph 20.7 mph N/A   Overcast
9:31 AM 44.1 °F 38.1 °F 35.1 °F 71% 30.25 in 10.0 mi North 11.5 mph 25.3 mph N/A   Overcast
9:54 AM 45.0 °F 37.4 °F 37.0 °F 74% 30.25 in 10.0 mi NNE 18.4 mph 25.3 mph N/A   Overcast
10:54 AM 46.0 °F 36.9 °F 37.0 °F 71% 30.25 in 10.0 mi NE 28.8 mph 41.4 mph N/A   Overcast
11:25 AM 48.0 °F - 36.0 °F 63% 30.26 in 10.0 mi NE 25.3 mph 36.8 mph N/A   Overcast
11:54 AM 46.0 °F 37.2 °F 35.1 °F 66% 30.25 in 10.0 mi NNE 26.5 mph 42.6 mph N/A   Overcast
12:54 PM 46.0 °F 37.0 °F 35.1 °F 66% 30.24 in 10.0 mi NE 27.6 mph 41.4 mph N/A   Overcast
1:54 PM 46.0 °F 37.2 °F 34.0 °F 63% 30.24 in 10.0 mi NE 26.5 mph 36.8 mph N/A   Overcast
2:54 PM 45.0 °F 35.2 °F 34.0 °F 65% 30.25 in 10.0 mi NNE 29.9 mph 38.0 mph N/A   Overcast
3:54 PM 45.0 °F 36.9 °F 35.1 °F 68% 30.24 in 10.0 mi NE 20.7 mph 32.2 mph N/A   Overcast
4:54 PM 45.0 °F 36.6 °F 37.0 °F 74% 30.25 in 10.0 mi NNE 21.9 mph 32.2 mph N/A   Overcast
5:54 PM 45.0 °F 36.2 °F 37.0 °F 74% 30.26 in 10.0 mi NNE 24.2 mph 31.1 mph N/A   Overcast
6:54 PM 45.0 °F 36.0 °F 37.0 °F 74% 30.24 in 10.0 mi NE 25.3 mph 31.1 mph N/A   Overcast
7:54 PM 46.0 °F 37.4 °F 37.9 °F 73% 30.22 in 10.0 mi NE 25.3 mph 34.5 mph N/A   Overcast
8:03 PM 46.0 °F 37.6 °F 37.9 °F 73% 30.22 in 10.0 mi NE 24.2 mph 34.5 mph N/A   Overcast
8:54 PM 46.0 °F 37.0 °F 39.9 °F 79% 30.22 in 10.0 mi NE 27.6 mph 40.3 mph N/A   Overcast
9:54 PM 46.0 °F 37.6 °F 39.9 °F 79% 30.22 in 10.0 mi NE 24.2 mph - 0.00 in   Overcast
10:12 PM 46.0 °F 37.4 °F 39.9 °F 79% 30.23 in 10.0 mi NE 25.3 mph 34.5 mph 0.00 in   Overcast
10:54 PM 46.0 °F 38.3 °F 41.0 °F 83% 30.22 in 10.0 mi NE 20.7 mph 31.1 mph 0.00 in   Overcast
11:54 PM 46.0 °F 38.0 °F 42.1 °F 86% 30.20 in 10.0 mi NE 21.9 mph 27.6 mph 0.00 in   Overcast